Simultaneous Nadir Overpasses (SNOs) Predictions

Prediction of SNOs over PacNW region [( 10.00, 139.50) to ( 22.70, 165.60)] between AQUA and NPP Satellites:

Table of predicted SNOs over PacNW region for the next 30.0 days since TLE Epoch: 7/8/2016
Index Date (AQUA) Time (AQUA) AQUA Lat,Lon Date (NPP) Time (NPP) NPP Lat,Lon Distance(km) Time Diff (sec)
1 07/11/2016 03:31:26 22.48, 147.57 07/11/2016 03:28:00 22.11, 145.91 175.98 206
2 07/16/2016 15:59:03 22.60, 147.49 07/16/2016 16:02:31 23.56, 144.65 309.21 208
3 07/19/2016 02:41:59 22.64, 159.90 07/19/2016 02:38:30 26.64, 157.45 509.34 209
4 07/24/2016 15:09:32 22.59, 159.85 07/24/2016 15:11:49 23.20, 157.25 274.99 137
5 07/27/2016 03:31:21 22.69, 147.54 07/27/2016 03:27:58 22.34, 145.87 176.39 203
6 08/01/2016 15:58:52 22.64, 147.52 08/01/2016 16:02:21 23.74, 144.71 312.27 209
7 08/04/2016 02:41:48 22.68, 159.92 08/04/2016 02:38:18 26.38, 157.53 477.11 210




NCC Satellite Simultaneous Nadir Overpasses (SNOs) Prediction Service
